Location: Aldenham
(51.6667°N, 0.3500°W)
Time: 18:08:33
(UTC+00:00)

Explorer 7 - Pass Details

Date: 20 February 2026
Orbit: 430 x 542 km, 50.2° (Epoch: 8 March)

Event Time Altitude Azimuth Distance (km) Brightness Sun altitude
Rises 15:35:28 0° 246° (WSW) 2,431 11.8 14.2°
Reaches altitude 10° 15:37:35 10° 241° (WSW) 1,577 11.6 13.9°
Maximum altitude 15:41:03 53° 164° (SSE) 573 7.3 13.5°
Drops below altitude 10° 15:44:39 10° 87° (E) 1,641 8.8 13.0°
Sets 15:46:54 0° 83° (E) 2,543 9.7 12.8°
